Home   Weather   Skien   Past weeks

Flag for Norway Past Weather in Skien, Norway — Yesterday and Last 2 Weeks

Now
39 °F

Clear.


Feels Like: 34 °F
Forecast: 28 / 37 °F
Wind: 8 mph from Southwest

Location: Torp

Current Time: Dec 10, 2016 at 9:35:30 pm

Latest Report: Dec 10, 2016 at 8:50 pm


Visibility: 10 mi

Pressure: 29.74 "Hg

Humidity: 93%

Dew Point: 37 °F

Location of SkienLocation

Past Weather in Skien — Graph

°F

Skien Temperature Yesterday

Maximum temperature yesterday: 46 °F (at 12:20 am)
Minimum temperature yesterday: 41 °F (at 11:20 am)
Average temperature yesterday: 45 °F

High & Low Weather Summary for the Past Weeks

 TemperatureHumidityPressure
High54 °F (Dec 8, 12:50 pm)100% (Nov 26, 6:50 am)30.45 "Hg (Nov 26, 6:50 am)
Low25 °F (Nov 29, 7:20 am)39% (Nov 27, 12:50 pm)29.53 "Hg (Dec 1, 2:20 pm)
Average38 °F71%29.97 "Hg
* Reported Nov 25 8:20 pm — Dec 10 8:20 pm, Skien, Weather by CustomWeather, © 2016

Note: Actual official high and low records may vary slightly from our data, if they occured in-between our weather recording intervals... More about our weather records

Advertising

Skien Weather History for the Previous 24 Hours

Scroll right to see more
 ConditionsComfort  
Time TempWeatherWind HumidityBarometerVisibility
8:20 pm
Sat, Dec 10
41 °FClear.8 mph87%29.74 "Hg10 mi
7:50 pm41 °FClear.9 mph93%29.74 "Hg10 mi
7:20 pm39 °FPassing clouds.5 mph100%29.74 "HgN/A
6:50 pm39 °FClear.8 mph100%29.74 "Hg10 mi
6:20 pm39 °FClear.8 mph100%29.74 "Hg10 mi
5:50 pm39 °FFog.7 mph100%29.71 "HgN/A
5:20 pm39 °FFog.6 mph100%29.71 "HgN/A
4:50 pm39 °FFog.1 mph100%29.71 "HgN/A
4:20 pm39 °FFog.7 mph100%29.71 "HgN/A
3:50 pm39 °FFog.6 mph100%29.71 "HgN/A
3:20 pm37 °FFog.2 mph100%29.71 "HgN/A
2:50 pm37 °FFog.2 mph100%29.71 "HgN/A
2:20 pm39 °FFog.5 mph100%29.71 "HgN/A
1:50 pm41 °FFog.5 mph100%29.68 "HgN/A
1:20 pm41 °FFog.6 mph100%29.68 "HgN/A
12:50 pm41 °FFog.6 mph100%29.68 "HgN/A
12:20 pm41 °FScattered showers. Fog.5 mph100%29.68 "HgN/A
11:50 am41 °FSprinkles. Fog.No wind100%29.68 "HgN/A
11:20 am41 °FLight rain. Fog.2 mph100%29.68 "HgN/A
10:50 am41 °FPassing clouds.5 mph100%29.68 "HgN/A
10:20 am39 °FSunny.3 mph100%29.68 "Hg10 mi
9:50 am41 °FPassing clouds.6 mph100%29.68 "HgN/A
9:20 am39 °FSunny.5 mph100%29.68 "Hg10 mi
8:50 am37 °FClear.7 mph100%29.71 "Hg10 mi
8:20 am37 °FClear.9 mph100%29.68 "Hg10 mi
7:50 am39 °FClear.8 mph100%29.68 "Hg10 mi
7:20 am39 °FClear.6 mph100%29.71 "Hg10 mi
6:50 am39 °FClear.No wind100%29.68 "Hg10 mi
6:20 am39 °FClear.3 mph100%29.68 "Hg10 mi
5:50 am39 °FPassing clouds.3 mph100%29.71 "HgN/A
5:20 am39 °FPassing clouds.3 mph100%29.71 "Hg0 mi
4:50 am39 °FPassing clouds.2 mph100%29.71 "Hg1 mi
4:20 am41 °FOvercast.3 mph100%29.71 "HgN/A
3:50 am41 °FMostly cloudy.1 mph100%29.74 "HgN/A
3:20 am41 °FMostly cloudy.2 mph100%29.74 "Hg4 mi
2:50 am41 °FOvercast.2 mph100%29.74 "HgN/A
2:20 am43 °FOvercast.2 mph100%29.74 "HgN/A
1:50 am43 °FMostly cloudy.2 mph100%29.74 "HgN/A
1:20 am43 °FOvercast.3 mph100%29.74 "HgN/A
12:50 am43 °FDrizzle. Overcast.1 mph100%29.77 "HgN/A
12:20 am43 °FPassing clouds.2 mph100%29.77 "HgN/A
11:50 pm
Fri, Dec 9
43 °FLight rain. Overcast.7 mph100%29.77 "HgN/A
11:20 pm45 °FLight rain. Overcast.9 mph100%29.80 "HgN/A
10:50 pm45 °FLight rain. Passing clouds.10 mph100%29.77 "HgN/A
10:20 pm45 °FLight rain. Passing clouds.9 mph93%29.80 "HgN/A
9:50 pm45 °FPassing clouds.7 mph81%29.80 "HgN/A
9:20 pm45 °FPassing clouds.6 mph81%29.80 "HgN/A
Weather by CustomWeather, © 2016

See weather overviewHow to use our weather pages